TimeCST,TemperatureF,Dew PointF,Humidity,Sea Level PressureIn,VisibilityMPH,Wind Direction,Wind SpeedMPH,Gust SpeedMPH,PrecipitationIn,Events,Conditions,WindDirDegrees,DateUTC
12:15 AM,41.0,39.2,93,30.22,7.0,Calm,Calm,-,N/A,,Scattered Clouds,0,2013-01-24 06:15:00
12:35 AM,41.0,39.2,93,30.22,8.0,Calm,Calm,-,N/A,,Scattered Clouds,0,2013-01-24 06:35:00
12:55 AM,41.0,39.2,93,30.22,8.0,Calm,Calm,-,N/A,,Mostly Cloudy,0,2013-01-24 06:55:00
1:15 AM,41.0,39.2,93,30.23,8.0,North,3.5,-,N/A,,Mostly Cloudy,360,2013-01-24 07:15:00
1:35 AM,41.0,39.2,93,30.23,7.0,Calm,Calm,-,N/A,,Mostly Cloudy,0,2013-01-24 07:35:00
1:55 AM,41.0,39.2,93,30.23,8.0,North,4.6,-,N/A,,Mostly Cloudy,10,2013-01-24 07:55:00
2:35 AM,44.6,41.0,87,30.25,9.0,Calm,Calm,-,N/A,,Mostly Cloudy,0,2013-01-24 08:35:00
2:55 AM,44.6,41.0,87,30.25,9.0,Calm,Calm,-,N/A,,Mostly Cloudy,0,2013-01-24 08:55:00
3:15 AM,44.6,41.0,87,30.24,9.0,Calm,Calm,-,N/A,,Overcast,0,2013-01-24 09:15:00
3:35 AM,44.6,41.0,87,30.24,8.0,Calm,Calm,-,N/A,,Overcast,0,2013-01-24 09:35:00
3:55 AM,44.6,41.0,87,30.25,8.0,Calm,Calm,-,N/A,,Mostly Cloudy,0,2013-01-24 09:55:00
4:15 AM,44.6,41.0,87,30.26,8.0,Calm,Calm,-,N/A,,Mostly Cloudy,0,2013-01-24 10:15:00
4:35 AM,46.4,41.0,81,30.27,10.0,NNE,4.6,-,N/A,,Mostly Cloudy,20,2013-01-24 10:35:00
4:55 AM,46.4,39.2,76,30.28,9.0,NE,5.8,-,N/A,,Mostly Cloudy,40,2013-01-24 10:55:00
5:15 AM,44.6,37.4,76,30.29,10.0,NE,10.4,-,N/A,,Mostly Cloudy,40,2013-01-24 11:15:00
5:35 AM,44.6,35.6,71,30.30,9.0,NNE,8.1,-,N/A,,Overcast,30,2013-01-24 11:35:00
5:55 AM,42.8,33.8,70,30.32,9.0,NNE,6.9,-,N/A,,Overcast,30,2013-01-24 11:55:00
6:15 AM,41.0,30.2,65,30.34,9.0,NNE,8.1,18.4,N/A,,Mostly Cloudy,30,2013-01-24 12:15:00
6:35 AM,41.0,28.4,61,30.35,9.0,NNE,8.1,-,N/A,,Overcast,20,2013-01-24 12:35:00
6:55 AM,39.2,28.4,65,30.36,10.0,NE,6.9,-,N/A,,Overcast,40,2013-01-24 12:55:00
7:15 AM,39.2,28.4,65,30.36,7.0,NE,9.2,-,N/A,,Overcast,40,2013-01-24 13:15:00
7:35 AM,39.2,26.6,61,30.35,8.0,NE,9.2,-,N/A,,Overcast,50,2013-01-24 13:35:00
7:55 AM,39.2,26.6,61,30.36,8.0,NE,6.9,-,N/A,,Overcast,50,2013-01-24 13:55:00
8:15 AM,39.2,24.8,56,30.37,9.0,NE,9.2,-,N/A,,Mostly Cloudy,50,2013-01-24 14:15:00
8:35 AM,39.2,24.8,56,30.38,8.0,NE,11.5,-,N/A,,Mostly Cloudy,50,2013-01-24 14:35:00
8:55 AM,39.2,24.8,56,30.39,8.0,NE,6.9,-,N/A,,Mostly Cloudy,50,2013-01-24 14:55:00
9:15 AM,41.0,24.8,53,30.40,8.0,NE,6.9,-,N/A,,Mostly Cloudy,40,2013-01-24 15:15:00
9:35 AM,41.0,23.0,49,30.41,7.0,NNE,10.4,-,N/A,,Mostly Cloudy,30,2013-01-24 15:35:00
9:55 AM,39.2,19.4,45,30.41,9.0,NE,10.4,-,N/A,,Overcast,50,2013-01-24 15:55:00
10:15 AM,39.2,17.6,42,30.41,8.0,ENE,11.5,17.3,N/A,,Overcast,60,2013-01-24 16:15:00
10:35 AM,41.0,17.6,39,30.41,9.0,ENE,9.2,-,N/A,,Overcast,70,2013-01-24 16:35:00
10:55 AM,41.0,17.6,39,30.41,8.0,NNE,9.2,-,N/A,,Mostly Cloudy,30,2013-01-24 16:55:00
11:15 AM,41.0,19.4,42,30.40,9.0,NE,9.2,-,N/A,,Scattered Clouds,50,2013-01-24 17:15:00
11:35 AM,42.8,19.4,39,30.40,8.0,NE,8.1,-,N/A,,Mostly Cloudy,40,2013-01-24 17:35:00
11:55 AM,44.6,19.4,37,30.38,8.0,East,5.8,-,N/A,,Scattered Clouds,100,2013-01-24 17:55:00
12:15 PM,44.6,19.4,37,30.37,8.0,East,6.9,-,N/A,,Partly Cloudy,80,2013-01-24 18:15:00
12:35 PM,44.6,21.2,39,30.35,8.0,ENE,5.8,-,N/A,,Clear,60,2013-01-24 18:35:00
12:55 PM,46.4,23.0,40,30.34,7.0,ENE,5.8,-,N/A,,Clear,70,2013-01-24 18:55:00
1:35 PM,46.4,19.4,34,30.34,8.0,East,6.9,-,N/A,,Clear,80,2013-01-24 19:35:00
1:55 PM,46.4,19.4,34,30.33,9.0,ENE,10.4,-,N/A,,Scattered Clouds,60,2013-01-24 19:55:00
2:15 PM,46.4,19.4,34,30.32,9.0,East,9.2,-,N/A,,Scattered Clouds,90,2013-01-24 20:15:00
2:35 PM,44.6,19.4,37,30.32,9.0,ENE,8.1,-,N/A,,Mostly Cloudy,60,2013-01-24 20:35:00
2:55 PM,44.6,21.2,39,30.33,9.0,NE,8.1,-,N/A,,Mostly Cloudy,50,2013-01-24 20:55:00
3:15 PM,44.6,21.2,39,30.33,8.0,East,5.8,-,N/A,,Mostly Cloudy,100,2013-01-24 21:15:00
3:35 PM,44.6,19.4,37,30.33,8.0,East,6.9,-,N/A,,Mostly Cloudy,90,2013-01-24 21:35:00
3:55 PM,44.6,19.4,37,30.33,8.0,East,6.9,-,N/A,,Mostly Cloudy,90,2013-01-24 21:55:00
4:15 PM,42.8,19.4,39,30.32,9.0,East,6.9,-,N/A,,Mostly Cloudy,90,2013-01-24 22:15:00
4:35 PM,42.8,19.4,39,30.32,8.0,East,6.9,-,N/A,,Mostly Cloudy,100,2013-01-24 22:35:00
4:55 PM,41.0,21.2,45,30.31,8.0,ESE,5.8,-,N/A,,Mostly Cloudy,110,2013-01-24 22:55:00
5:15 PM,41.0,21.2,45,30.30,9.0,East,6.9,-,N/A,,Scattered Clouds,80,2013-01-24 23:15:00
5:35 PM,41.0,21.2,45,30.30,7.0,East,5.8,-,N/A,,Mostly Cloudy,90,2013-01-24 23:35:00
5:55 PM,41.0,23.0,49,30.30,7.0,East,8.1,-,N/A,,Mostly Cloudy,90,2013-01-24 23:55:00
6:15 PM,41.0,23.0,49,30.30,10.0,ENE,9.2,-,N/A,,Mostly Cloudy,70,2013-01-25 00:15:00
6:35 PM,41.0,23.0,49,30.29,10.0,East,6.9,-,N/A,,Overcast,80,2013-01-25 00:35:00
6:55 PM,41.0,23.0,49,30.30,10.0,East,4.6,-,N/A,,Overcast,100,2013-01-25 00:55:00
7:15 PM,41.0,23.0,49,30.28,10.0,East,4.6,-,N/A,,Overcast,100,2013-01-25 01:15:00
7:35 PM,41.0,23.0,49,30.28,10.0,East,8.1,-,N/A,,Overcast,80,2013-01-25 01:35:00
8:15 PM,41.0,23.0,49,30.27,10.0,East,8.1,-,N/A,,Overcast,90,2013-01-25 02:15:00
8:35 PM,41.0,21.2,45,30.26,10.0,East,4.6,-,N/A,,Overcast,100,2013-01-25 02:35:00
8:55 PM,41.0,23.0,49,30.25,10.0,East,3.5,-,N/A,,Overcast,100,2013-01-25 02:55:00
9:15 PM,41.0,23.0,49,30.24,9.0,ESE,5.8,-,N/A,,Overcast,110,2013-01-25 03:15:00
9:55 PM,42.8,23.0,46,30.23,10.0,Calm,Calm,-,N/A,,Overcast,0,2013-01-25 03:55:00
10:15 PM,42.8,23.0,46,30.24,9.0,Calm,Calm,-,N/A,,Overcast,0,2013-01-25 04:15:00
10:35 PM,42.8,23.0,46,30.23,10.0,ESE,3.5,-,N/A,,Overcast,110,2013-01-25 04:35:00
10:55 PM,42.8,23.0,46,30.24,10.0,ESE,3.5,-,N/A,,Overcast,110,2013-01-25 04:55:00
11:15 PM,42.8,24.8,49,30.24,10.0,ESE,4.6,-,N/A,,Overcast,110,2013-01-25 05:15:00
11:55 PM,42.8,24.8,49,30.23,10.0,East,4.6,-,N/A,,Overcast,100,2013-01-25 05:55:00